EST,Max TemperatureF,Mean TemperatureF,Min TemperatureF,Max Dew PointF,MeanDew PointF,Min DewpointF,Max Humidity, Mean Humidity, Min Humidity, Max Sea Level PressureIn, Mean Sea Level PressureIn, Min Sea Level PressureIn, Max VisibilityMiles, Mean VisibilityMiles, Min VisibilityMiles, Max Wind SpeedMPH, Mean Wind SpeedMPH, Max Gust SpeedMPH,PrecipitationIn, CloudCover, Events, WindDirDegrees
2013-2-1,63,47,30,34,29,24,85,55,25,30.37,30.32,30.30,10,10,10,15,4,21,0.00,0,,321
2013-2-2,65,47,29,32,21,9,85,51,16,30.39,30.29,30.19,10,10,10,12,3,14,0.00,0,,126
2013-2-3,68,52,36,44,32,21,93,55,17,30.24,30.16,30.09,10,10,10,16,4,22,T,1,,317
2013-2-4,64,49,34,49,37,30,89,62,34,30.13,30.10,30.04,10,10,9,9,2,13,0.00,0,,141
2013-2-5,65,56,47,57,53,44,93,83,73,30.09,30.04,30.01,10,9,3,9,2,12,0.12,7,Rain,140
2013-2-6,72,65,57,57,56,54,93,75,57,30.15,30.09,30.04,10,9,5,30,3,77,0.02,7,Rain,85
2013-2-7,69,64,59,64,60,54,93,87,81,30.06,29.91,29.78,10,9,1,21,9,30,0.25,7,Rain,143
2013-2-8,71,63,55,54,53,52,93,75,57,30.13,30.01,29.94,10,10,9,12,4,20,0.00,7,,316
2013-2-9,69,58,46,52,41,31,93,58,23,30.27,30.20,30.14,10,10,10,13,4,15,0.00,0,,51
2013-2-10,75,60,44,58,49,39,86,68,49,30.26,30.18,30.10,10,10,10,22,8,31,0.00,4,,146
2013-2-11,74,70,65,65,63,57,93,80,66,30.16,30.10,30.06,10,8,0,18,9,23,0.03,8,Fog-Rain,163
2013-2-12,74,68,61,69,63,59,97,91,84,30.06,29.98,29.84,10,5,1,17,5,23,0.15,8,Rain,69
2013-2-13,77,64,51,69,58,41,87,64,40,30.01,29.87,29.79,10,10,8,20,9,24,0.04,7,Rain,264
2013-2-14,51,44,37,46,40,34,92,77,61,30.12,30.06,29.98,10,10,9,13,4,16,0.01,3,Rain,347
2013-2-15,68,49,30,40,32,27,92,57,22,30.14,30.08,30.00,10,7,0,13,3,,0.00,2,Fog,3
2013-2-16,59,46,32,39,29,12,89,57,24,30.23,30.06,29.98,10,10,10,25,9,33,T,2,,310
2013-2-17,54,39,23,23,16,2,75,44,12,30.39,30.31,30.24,10,10,10,14,3,18,0.00,0,,310
2013-2-18,62,44,26,28,20,11,81,48,14,30.41,30.32,30.22,10,10,10,14,4,23,0.00,0,,143
2013-2-19,69,52,35,63,50,27,93,79,64,30.19,30.10,30.03,10,8,1,20,5,22,0.38,4,Rain,247
2013-2-20,64,50,35,41,29,20,89,54,18,30.22,30.16,30.09,10,10,10,13,3,16,0.00,0,,3
2013-2-21,73,54,34,56,40,27,89,60,31,30.15,30.07,30.00,10,10,10,10,3,16,0.00,1,,117
2013-2-22,68,64,60,64,63,55,94,92,87,30.06,30.01,29.95,10,4,0,15,6,17,4.75,8,Fog-Rain-Thunderstorm,116
2013-2-23,78,71,64,69,66,62,93,80,67,29.96,29.90,29.83,10,8,2,16,6,17,0.92,8,Rain-Thunderstorm,191
2013-2-24,76,67,58,63,56,50,97,69,41,30.01,29.94,29.88,10,10,1,13,5,15,0.29,7,Rain-Hail-Thunderstorm,28
2013-2-25,62,59,55,61,57,53,100,92,84,29.90,29.83,29.72,10,8,1,17,11,23,3.95,8,Rain-Thunderstorm,75
2013-2-26,75,65,54,68,52,45,90,62,34,29.88,29.69,29.53,10,10,10,21,14,27,1.45,1,Rain-Thunderstorm,244
2013-2-27,65,56,46,45,39,35,86,60,34,30.01,29.95,29.88,10,10,10,12,7,,0.00,0,,287
2013-2-28,67,53,38,40,33,23,92,56,19,30.02,29.97,29.93,10,10,10,18,7,25,0.00,0,Fog,310